Weather in Spokane

United States     47°40′24″N   117°23′47″W
temp.,
°C
wind,
m/s
gust,
m/s
humid.,
%
clouds,
%
prec.,
mm/h
press.,
hPa
HPBL,
m
25 may, wed
wed2523:00+13s2458100 0.0 1013179
02:00+12ese1261100 0.0 101376
05:00+11se2665100 0.0 1013349
08:00+12sse2466100 0.1 1014421
11:00+13s2459100 0.1 1014787
14:00+18sw464978 0.0 10131777
17:00+17nnw1160100 0.1 101222
20:00+15se236494 0.0 101184
26 may, thu
thu2623:00+13sse2275100 0.0 101240
02:00+12e1280100 0.0 101239
05:00+11ene1186100 0.0 101226
08:00+14ene127295 0.0 1013343
11:00+19se1351100 0.0 10111145
14:00+22ne1242100 0.0 10081538
17:00+22nne1143100 0.0 1006978
20:00+18nne0162100 0.0 100511
27 may, fri
fri2723:00+17sw3856100 0.0 1006368
02:00+13ssw41088100 0.7 1009515
05:00+12ssw5108532 0.8 1010754
08:00+13ssw597555 0.0 1010696
11:00+17sw61052100 0.1 10101584
14:00+17sw71051100 0.4 10091882
17:00+18sw6941100 0.4 10072000
20:00+14ssw61057100 0.0 1007868
28 may, sat
sat2823:00+11s41280100 0.0 1008576
02:00+10sse2674100 0.0 1007377
05:00+10sse3477100 0.0 1007381
08:00+11sse3466100 0.0 1006693
11:00+13ssw3458100 0.1 10041469
14:00+12ssw3368100 0.3 10031080
17:00+10w1184100 0.8 1002265
20:00+9wnw1191100 0.5 1002161
29 may, sun
sun2923:00+9wnw1192100 0.6 1002125
02:00+9wsw1195100 1.3 100284
05:00+8s3496100 3.7 1003296
08:00+7s3595100 0.6 1005387
11:00+6ssw3794100 1.0 1006455
14:00+7se2496100 4.1 1007371
17:00+7ese3496100 9.1 1009359
20:00+6e2395100 1.7 1011271